Regional Weather Roundup
Issued by NWS

Home | Current Version | Previous Version | Text Only | Print | Product List | Glossary Off
Versions: 1 2 3 4 5 6 7 8 9 10 11 12 13 14 15 16 17 18 19 20 21 22 23 24 25 26 27 28 29 30 31 32 33 34 35 36 37 38 39 40 41 42 43 44 45 46 47 48 49 50

000
ASUS43 KIND 311659
RWRIN

WEATHER ROUNDUP FOR INDIANA
NATIONAL WEATHER SERVICE INDIANAPOLIS IN
100 PM EDT FRI JUL 31 2015

NOTE: "FAIR" INDICATES FEW OR NO CLOUDS BELOW 12,000 FEET WITH NO
SIGNIFICANT WEATHER AND/OR OBSTRUCTIONS TO VISIBILITY.

* - STATION DOES NOT REPORT WEATHER SUCH AS PRECIPITATION OR FOG.

+ - STATION NOT QUALITY CONTROLLED BY THE NATIONAL WEATHER SERVICE.
    USE DATA WITH CAUTION...ESPECIALLY DEWPOINT AND RELATIVE
    HUMIDITY OBSERVATIONS.

INZ001>003-010>013-019-020-311800-
NORTHWEST INDIANA

CITY           SKY/WX    TMP DP  RH WIND       PRES   REMARKS
GARY /AIRPORT/ MOSUNNY   86  64  48 W16       29.99F
KNOX *+        MOSUNNY   82  64  54 W16       29.98F
MONTICELLO +   SUNNY     84  68  57 W7G16     30.02F
RENSSELAER +   MOSUNNY   82  68  61 W14G20    30.02F

$$

LMZ046-743>745-311800-
SOUTHERN LAKE MICHIGAN

STATION/POSITION TIME  TEMP    WIND        PRES    WAVE
                       AIR SEA DIR/SP/G            HT
                 (UTC) (F)     (DEG/KT/KT) (MB)    (FT)
BURNS HARBOR     1600   77     290/ 11/ 15 1016.3S
MICHIGAN CITY    1600   76     250/ 11/ 12   N/A
5NW MICH CITY    1600   75 74  280/  6/  8   N/A     2

$$

INZ004-005-014>016-021>024-311800-
NORTH CENTRAL INDIANA

CITY           SKY/WX    TMP DP  RH WIND       PRES   REMARKS
ELKHART        SUNNY     86  59  39 W15G21    29.98F
GOSHEN         SUNNY     83  64  52 W14G23    29.97F
SOUTH BEND     SUNNY     84  60  44 W16G25    29.99S

$$

INZ006>009-017-018-025>027-311800-
NORTHEAST INDIANA

CITY           SKY/WX    TMP DP  RH WIND       PRES   REMARKS
ANGOLA *+      SUNNY     84  63  48 W13       29.97F
FORT WAYNE     MOSUNNY   84  58  40 W15G23    30.01F

$$

INZ028-029-035-036-043>045-051>053-311800-
WEST CENTRAL INDIANA

CITY           SKY/WX    TMP DP  RH WIND       PRES   REMARKS
CRAWFORDSVL +  SUNNY     81  60  48 W9        30.07
GREENCASTLE +  SUNNY     82  54  36 W7        30.08F
LAFAYETTE      SUNNY     83  68  60 W8        30.03F
TERRE HAUTE    SUNNY     86  62  44 NW5       30.07F

$$

INZ030>032-037>040-046>048-054>057-064-065-311800-
CENTRAL INDIANA

CITY           SKY/WX    TMP DP  RH WIND       PRES   REMARKS
GREENWOOD *+   SUNNY     84  52  32 W8        30.07S
INDIANAPOLIS   MOSUNNY   86  55  34 NW10      30.05F
-EAGLE CREEK   SUNNY     85  60  42 W9        30.05F
KOKOMO *+      SUNNY     84  61  45 W15       30.03F
MT COMFORT *+  SUNNY     84  45  24 NW9       30.06F
SHELBYVILLE    SUNNY     86  61  42 NW7       30.05F

$$

INZ033-034-041-042-049-050-058-059-311800-
EAST CENTRAL INDIANA

CITY           SKY/WX    TMP DP  RH WIND       PRES   REMARKS
MUNCIE         SUNNY     82  59  45 W12       30.04F

$$

INZ060-061-067>069-081>083-085>088-311800-
SOUTHWEST INDIANA

CITY           SKY/WX    TMP DP  RH WIND       PRES   REMARKS
EVANSVILLE     SUNNY     88  64  44 NE9       30.09F
HUNTINGBURG *+ SUNNY     86  63  45 NW8       30.09F

$$

INZ062-063-066-070>080-084-089>092-311800-
SOUTH CENTRAL AND SOUTHEAST INDIANA

CITY           SKY/WX    TMP DP  RH WIND       PRES   REMARKS
BLOOMINGTON    SUNNY     84  61  45 NW5       30.08F
MADISON *+     SUNNY     84  57  39 NW6       30.09F
SEYMOUR +      SUNNY     86  63  45 W3        30.06F

$$




USA.gov is the U.S. government's official web portal to all federal, state and local government web resources and services.